Home   Weather   Kigali   Past weeks

Flag for Rwanda Past Weather in Kigali, Rwanda — Yesterday and Last 2 Weeks

Now
73 °F

Passing clouds.


Feels Like: 77 °F
Forecast: 64 / 79 °F
Wind: 2 mph from Southwest

Location: Kigali Airport

Current Time: Aug 20, 2017 at 9:28:58 pm

Latest Report: Aug 20, 2017 at 8:00 pm


Visibility: N/A

Pressure: 30.09 "Hg (25.15 "Hg at 1555m altitude)

Humidity: 50%

Dew Point: 54 °F

Location of KigaliLocation

Past Weather in Kigali — Graph

°F

Kigali Temperature Yesterday

Maximum temperature yesterday: 77 °F (at 11:30 am)
Minimum temperature yesterday: 61 °F (at 6:00 am)
Average temperature yesterday: 67 °F

High & Low Weather Summary for the Past Weeks

 TemperatureHumidityPressure
High86 °F (Aug 16, 3:30 pm)100% (Aug 20, 12:00 am)30.24 "Hg (Aug 20, 12:00 am)
Low61 °F (Aug 19, 6:00 am)29% (Aug 16, 3:30 pm)29.95 "Hg (Aug 16, 4:00 pm)
Average73 °F55%30.12 "Hg
* Reported Aug 5 8:00 pm — Aug 20 8:00 pm, Kigali. Weather by CustomWeather, © 2017

Note: Actual official high and low records may vary slightly from our data, if they occured in-between our weather recording intervals... More about our weather records

Advertising

Kigali Weather History for the Previous 24 Hours

Scroll right to see more
 ConditionsComfort  
Time TempWeatherWind HumidityBarometerVisibility
8:00 pm
Sun, Aug 20
73 °FPassing clouds.2 mph50%30.09 "HgN/A
7:30 pm73 °FPassing clouds.2 mph50%30.09 "HgN/A
7:00 pm73 °FPassing clouds.5 mph50%30.09 "HgN/A
6:30 pm75 °FPassing clouds.6 mph47%30.07 "HgN/A
6:00 pm77 °FScattered clouds.6 mph44%30.07 "HgN/A
5:30 pm77 °FBroken clouds.6 mph44%30.07 "HgN/A
5:00 pm77 °FBroken clouds.8 mph44%30.07 "HgN/A
4:30 pm77 °FBroken clouds.10 mph44%30.07 "HgN/A
4:00 pm79 °FBroken clouds.13 mph42%30.07 "HgN/A
3:30 pm79 °FBroken clouds.12 mph42%30.12 "HgN/A
3:00 pm79 °FBroken clouds.10 mph42%30.09 "HgN/A
2:30 pm79 °FBroken clouds.8 mph45%30.09 "HgN/A
2:00 pm77 °FBroken clouds.12 mph47%30.12 "HgN/A
1:30 pm77 °FBroken clouds.12 mph51%30.12 "HgN/A
1:00 pm77 °FBroken clouds.N/A51%30.15 "HgN/A
12:00 pm75 °FBroken clouds.12 mph54%30.18 "HgN/A
11:30 am77 °FBroken clouds.12 mph54%30.21 "HgN/A
10:30 am75 °FScattered clouds.13 mph54%30.24 "HgN/A
10:00 am73 °FScattered clouds.12 mph57%30.24 "HgN/A
9:30 am72 °FScattered clouds.9 mph69%30.24 "HgN/A
9:00 am70 °FScattered clouds.3 mph73%30.24 "HgN/A
8:30 am68 °FScattered clouds.No wind88%30.21 "Hg6 mi
8:00 am66 °FScattered clouds.No wind88%30.21 "Hg4 mi
7:30 am66 °FPassing clouds.No wind88%30.21 "Hg4 mi
7:00 am63 °FScattered clouds.2 mph94%30.18 "Hg4 mi
6:30 am63 °FScattered clouds.1 mph94%30.18 "Hg4 mi
6:00 am63 °FPartly cloudy.3 mph94%30.18 "Hg4 mi
5:30 am63 °FPartly cloudy.3 mph94%30.15 "Hg4 mi
5:00 am63 °FPartly cloudy.2 mph94%30.15 "Hg4 mi
4:30 am61 °FPartly cloudy.2 mph100%30.15 "Hg4 mi
3:30 am61 °FPassing clouds.5 mph100%30.12 "HgN/A
3:00 am61 °FPassing clouds.3 mph100%30.12 "HgN/A
2:00 am63 °FPassing clouds.3 mph94%30.12 "HgN/A
1:30 am63 °FPassing clouds.5 mph94%30.12 "HgN/A
1:00 am63 °FPassing clouds.5 mph94%30.12 "HgN/A
12:30 am63 °FPassing clouds.7 mph94%30.15 "HgN/A
12:00 am63 °FPassing clouds.7 mph100%30.15 "HgN/A
11:30 pm
Sat, Aug 19
64 °FPassing clouds.6 mph94%30.15 "HgN/A
11:00 pm64 °FPassing clouds.8 mph94%30.15 "HgN/A
10:30 pm63 °FPassing clouds.8 mph94%30.18 "HgN/A
10:00 pm63 °FPassing clouds.5 mph94%30.18 "HgN/A
9:30 pm64 °FThunderstorms. Passing clouds.6 mph94%30.18 "HgN/A
9:00 pm64 °FThunderstorms. Passing clouds.8 mph94%30.15 "HgN/A
Weather by CustomWeather, © 2017

See weather overviewHow to use our weather pages